DW9498 Weather Reports


Display with metric or nautical units.
time (UTC)temp
F
wind
direction
speed
MPH
gust
MPH
rain 1hr
in
rain 24hr
in
rain mn
in
humidity
%
barometer
mb
20260510040342 60 356 3.0 5.0 0.00 0.00 0.00 36 1015.7
20260510035329 61 38 2.0 5.0 0.00 0.00 0.00 36 1015.5
20260510034336 61 360 4.0 7.0 0.00 0.00 0.00 35 1015.3
20260510033328 62 16 1.0 10.0 0.00 0.00 0.00 36 1015.1
20260510032323 62 358 2.0 6.0 0.00 0.00 0.00 36 1014.9
20260510031325 62 16 2.0 7.0 0.00 0.00 0.00 36 1014.8
20260510030334 63 358 1.0 4.0 0.00 0.00 0.00 36 1014.6
20260510025326 63 15 2.0 3.0 0.00 0.00 0.00 36 1014.4
20260510024346 64 2 1.0 2.0 0.00 0.00 0.00 35 1014.1
20260510023333 64 356 1.0 3.0 0.00 0.00 0.00 35 1013.9
20260510022339 65 347 2.0 6.0 0.00 0.00 0.00 35 1013.7
20260510021343 65 12 1.0 5.0 0.00 0.00 0.00 34 1013.4
20260510020333 65 349 2.0 4.0 0.00 0.00 0.00 34 1013.2
20260510015327 66 6 0.0 4.0 0.00 0.00 0.00 35 1013.0
20260510014349 67 15 4.0 6.0 0.00 0.00 0.00 33 1012.8
20260510013334 67 23 3.0 7.0 0.00 0.00 0.00 35 1012.5
20260510012326 67 344 1.0 6.0 0.00 0.00 0.00 35 1012.3
20260510011325 68 356 4.0 6.0 0.00 0.00 0.00 36 1012.1
20260510010351 68 19 3.0 5.0 0.00 0.00 0.00 38 1012.0
20260510005332 68 352 3.0 7.0 0.00 0.00 0.00 39 1011.8
20260510004342 69 359 3.0 8.0 0.00 0.00 0.00 39 1011.7
20260510003349 69 13 3.0 9.0 0.00 0.00 0.00 39 1011.4
20260510002329 69 24 2.0 8.0 0.00 0.00 0.00 40 1011.4
20260510001330 69 12 2.0 6.0 0.00 0.00 0.00 42 1011.4
20260510000337 69 19 2.0 5.0 0.00 0.00 0.00 42 1011.4
20260509235332 69 24 3.0 7.0 0.00 0.00 0.00 43 1011.3
20260509234335 69 26 3.0 6.0 0.00 0.00 0.00 43 1011.4
20260509233348 69 18 3.0 5.0 0.00 0.00 0.00 44 1011.4
20260509232356 69 2 2.0 4.0 0.00 0.00 0.00 44 1011.2
20260509231345 69 25 3.0 8.0 0.00 0.00 0.00 44 1011.2
20260509230329 69 346 3.0 9.0 0.00 0.00 0.00 44 1011.3
20260509225342 70 323 4.0 8.0 0.00 0.00 0.00 43 1011.2
20260509224325 71 346 4.0 8.0 0.00 0.00 0.00 44 1011.1
20260509223331 71 1 3.0 8.0 0.00 0.00 0.00 44 1011.0
20260509222337 71 347 6.0 11.0 0.00 0.00 0.00 43 1010.9
20260509221340 71 341 6.0 14.0 0.00 0.00 0.00 43 1010.8
20260509220348 70 348 4.0 12.0 0.00 0.00 0.00 43 1010.7
20260509215326 70 337 4.0 8.0 0.00 0.00 0.00 44 1010.6
20260509214344 70 14 4.0 9.0 0.00 0.00 0.00 42 1010.5
20260509213349 70 354 5.0 11.0 0.00 0.00 0.00 41 1010.5
20260509212353 71 26 6.0 11.0 0.00 0.00 0.00 40 1010.4
20260509211346 71 344 3.0 14.0 0.00 0.00 0.00 41 1010.3
20260509210334 71 356 6.0 16.0 0.00 0.00 0.00 39 1010.1
20260509205326 72 32 4.0 13.0 0.00 0.00 0.00 37 1010.0
20260509204334 72 35 7.0 13.0 0.00 0.00 0.00 39 1009.8
20260509203347 74 15 8.0 13.0 0.00 0.00 0.00 35 1009.6
20260509202332 76 338 6.0 12.0 0.00 0.00 0.00 33 1009.4
20260509201341 76 8 4.0 10.0 0.00 0.00 0.00 31 1009.2
20260509200330 76 1 5.0 11.0 0.00 0.00 0.00 30 1009.0
20260509195341 77 29 3.0 9.0 0.00 0.00 0.00 29 1008.9
20260509194411 77 26 2.0 8.0 0.00 0.00 0.00 26 1008.8
20260509193327 76 15 0.0 6.0 0.00 0.00 0.00 29 1008.8
20260509192334 77 339 2.0 7.0 0.00 0.00 0.00 28 1008.8
20260509191339 77 7 3.0 7.0 0.00 0.00 0.00 27 1008.8
20260509190329 77 355 3.0 8.0 0.00 0.00 0.00 29 1008.7
20260509185323 77 17 6.0 10.0 0.00 0.00 0.00 27 1008.7
20260509184349 76 347 0.0 6.0 0.00 0.00 0.00 28 1008.7
20260509183339 75 330 2.0 7.0 0.00 0.00 0.00 28 1008.9
20260509182324 76 344 3.0 7.0 0.00 0.00 0.00 28 1009.0
20260509181358 75 24 2.0 6.0 0.00 0.00 0.00 29 1008.8
20260509180328 74 23 4.0 6.0 0.00 0.00 0.00 30 1008.7
20260509175356 74 10 2.0 6.0 0.00 0.00 0.00 30 1008.7
20260509174338 74 15 3.0 7.0 0.00 0.00 0.00 29 1008.7
20260509173348 74 22 1.0 8.0 0.00 0.00 0.00 30 1008.7
20260509172332 74 12 2.0 5.0 0.00 0.00 0.00 30 1008.9
20260509171339 74 244 2.0 7.0 0.00 0.00 0.00 30 1008.9
20260509170351 73 19 3.0 7.0 0.00 0.00 0.00 30 1009.0
20260509165335 72 27 3.0 7.0 0.00 0.00 0.00 31 1009.0
20260509164338 72 339 2.0 5.0 0.00 0.00 0.00 36 1009.0
20260509163347 71 339 2.0 6.0 0.00 0.00 0.00 34 1008.9
20260509162347 70 335 3.0 7.0 0.00 0.00 0.00 34 1008.9
20260509161334 70 332 4.0 11.0 0.00 0.00 0.00 33 1008.9
20260509160346 70 26 3.0 9.0 0.00 0.00 0.00 34 1008.9
20260509155345 70 27 4.0 7.0 0.00 0.00 0.00 37 1009.0
20260509154327 69 359 4.0 7.0 0.00 0.00 0.00 36 1009.2
20260509153337 69 357 3.0 6.0 0.00 0.00 0.00 38 1009.3
20260509152352 69 358 4.0 10.0 0.00 0.00 0.00 37 1009.6
20260509151333 69 337 5.0 8.0 0.00 0.00 0.00 37 1009.3
20260509150323 69 19 5.0 6.0 0.00 0.00 0.00 39 1009.2
20260509145334 68 164 1.0 4.0 0.00 0.00 0.00 38 1008.2
20260509144338 67 219 2.0 4.0 0.00 0.00 0.00 39 1008.2
20260509143350 66 287 2.0 6.0 0.00 0.00 0.00 38 1008.3
20260509142334 66 143 2.0 5.0 0.00 0.00 0.00 40 1008.4
20260509141339 64 169 2.0 4.0 0.00 0.00 0.00 45 1008.4
20260509140331 62 159 1.0 4.0 0.00 0.00 0.00 48 1008.4
20260509135324 61 173 0.0 2.0 0.00 0.00 0.00 53 1008.5
20260509134359 59 180 1.0 1.0 0.00 0.00 0.00 54 1008.3
20260509133344 58 166 0.0 2.0 0.00 0.00 0.00 54 1008.3
20260509132330 57 170 0.0 2.0 0.00 0.00 0.00 57 1008.4
20260509131334 56 157 0.0 1.0 0.00 0.00 0.00 56 1008.4
20260509130322 54 138 0.0 2.0 0.00 0.00 0.00 59 1008.4
20260509125335 53 164 0.0 0.0 0.00 0.00 0.00 61 1008.4
20260509124337 52 306 0.0 0.0 0.00 0.00 0.00 62 1008.4
20260509123323 51 342 0.0 0.0 0.00 0.00 0.00 64 1008.3
20260509122337 50 342 0.0 0.0 0.00 0.00 0.00 65 1008.2
20260509121323 50 342 0.0 0.0 0.00 0.00 0.00 65 1008.1
20260509120336 49 341 0.0 0.0 0.00 0.00 0.00 67 1008.2
20260509115329 47 339 0.0 0.0 0.00 0.00 0.00 70 1008.1
20260509114355 47 339 0.0 0.0 0.00 0.00 0.00 71 1007.9
20260509113325 47 339 0.0 0.0 0.00 0.00 0.00 70 1007.8
20260509112357 47 339 0.0 0.0 0.00 0.00 0.00 70 1007.7
20260509111353 47 339 0.0 0.0 0.00 0.00 0.00 69 1007.6
20260509110322 47 339 0.0 0.0 0.00 0.00 0.00 70 1007.6
20260509105332 47 339 0.0 0.0 0.00 0.00 0.00 70 1007.5
20260509104338 48 339 0.0 0.0 0.00 0.00 0.00 68 1007.5
20260509103348 48 339 0.0 0.0 0.00 0.00 0.00 69 1007.6
20260509102330 48 339 0.0 0.0 0.00 0.00 0.00 68 1007.5
20260509101339 48 339 0.0 0.0 0.00 0.00 0.00 67 1007.5
20260509100406 49 339 0.0 0.0 0.00 0.00 0.00 67 1007.5
20260509095327 48 339 0.0 0.0 0.00 0.00 0.00 66 1007.5
20260509094333 48 339 0.0 0.0 0.00 0.00 0.00 66 1007.5
20260509093323 49 339 0.0 0.0 0.00 0.00 0.00 65 1007.5
20260509092336 48 339 0.0 0.0 0.00 0.00 0.00 65 1007.5
20260509091351 48 339 0.0 0.0 0.00 0.00 0.00 65 1007.5
20260509090331 49 339 0.0 0.0 0.00 0.00 0.00 64 1007.4
20260509085338 49 339 0.0 0.0 0.00 0.00 0.00 63 1007.3
20260509082324 51 339 0.0 0.0 0.00 0.00 0.00 60 1007.1
20260509081326 51 339 0.0 0.0 0.00 0.00 0.00 60 1007.1
20260509080354 51 339 0.0 0.0 0.00 0.00 0.00 59 1007.0
20260509075324 52 339 0.0 0.0 0.00 0.00 0.00 57 1007.0
20260509074330 53 339 0.0 0.0 0.00 0.00 0.00 56 1007.0
20260509073322 54 339 0.0 0.0 0.00 0.00 0.00 53 1007.1
20260509072335 55 339 0.0 0.0 0.00 0.00 0.00 51 1007.2
20260509071336 56 339 0.0 0.0 0.00 0.00 0.00 48 1007.0
20260509070347 57 339 0.0 0.0 0.00 0.00 0.00 46 1007.1
20260509065339 58 339 0.0 0.0 0.00 0.00 0.00 45 1007.1
20260509064324 60 339 0.0 0.0 0.00 0.00 0.00 43 1007.2
20260509063334 60 339 0.0 1.0 0.00 0.00 0.00 42 1007.2
20260509062352 61 5 0.0 2.0 0.00 0.00 0.00 41 1007.1
20260509061345 62 326 0.0 3.0 0.00 0.00 0.00 42 1007.2
20260509060329 63 3 0.0 2.0 0.00 0.00 0.00 40 1007.2
20260509055404 63 12 1.0 3.0 0.00 0.00 0.00 39 1007.1
20260509054400 64 356 1.0 5.0 0.00 0.00 0.00 38 1007.0
20260509053328 65 327 3.0 6.0 0.00 0.00 0.00 37 1007.0
20260509052334 64 41 2.0 4.0 0.00 0.00 0.00 38 1006.8
20260509051338 62 21 2.0 3.0 0.00 0.00 0.00 40 1006.8
20260509050349 60 321 0.0 0.0 0.00 0.00 0.00 43 1006.7
20260509045329 59 261 0.0 1.0 0.00 0.00 0.00 46 1006.7
20260509044400 58 247 0.0 0.0 0.00 0.00 0.00 47 1006.6
20260509043331 58 247 0.0 0.0 0.00 0.00 0.00 50 1006.6
20260509042323 59 247 0.0 0.0 0.00 0.00 0.00 50 1006.4
20260509041339 60 247 0.0 0.0 0.00 0.00 0.00 48 1006.4